カタログに戻る

DELTA 1 DEB

LostLEO
NORAD 29188·DEBRIS·🇺🇸 United States

打ち上げ Jan 11, 1968 から Vandenberg Space Force Base

Loading…

次のパス (今後24時間)

TLE

古いSource: Space-Track

元期: Dec 19, 2025, 12:02 UTC

1 29188U 68002M   25353.50164381  .00001860  00000-0  26456-2 0  9990
2 29188 105.8294  84.8766 0249526 350.2516  27.4921 13.47227278211910

AllMySatでDELTA 1 DEBをリアルタイム追跡

Download on the App Store